Regional Weather Roundup
Issued by NWS

Home | Current Version | Previous Version | Graphics & Text | Print | Product List | Glossary On
Versions: 1 2 3 4 5 6 7 8 9 10 11 12 13 14 15 16 17 18 19 20 21 22 23 24 25 26 27 28 29 30 31 32 33 34 35 36 37 38 39 40 41 42 43 44 45 46 47 48 49 50
111
ASUS43 KIND 201209
RWRIN

WEATHER ROUNDUP FOR INDIANA
NATIONAL WEATHER SERVICE INDIANAPOLIS IN
800 AM EDT WED SEP 20 2017

NOTE: "FAIR" INDICATES FEW OR NO CLOUDS BELOW 12,000 FEET WITH NO
SIGNIFICANT WEATHER AND/OR OBSTRUCTIONS TO VISIBILITY.

* - STATION DOES NOT REPORT WEATHER SUCH AS PRECIPITATION OR FOG.

+ - STATION NOT QUALITY CONTROLLED BY THE NATIONAL WEATHER SERVICE.
    USE DATA WITH CAUTION...ESPECIALLY DEWPOINT AND RELATIVE
    HUMIDITY OBSERVATIONS.

INZ001>003-010>013-019-020-201300-
NORTHWEST INDIANA

CITY           SKY/WX    TMP DP  RH WIND       PRES   REMARKS
GARY /AIRPORT/ PTCLDY    66  66 100 VRB5      29.94S FOG
KNOX *+          N/A     55  55 100 CALM      29.97R
LA PORTE +     FOG       58  58 100 CALM      29.98R VSB 1/4
6HR MIN TEMP:  58; 6HR MAX TEMP:  62;

MICHIGAN CITY+ FOG       59  59 100 CALM      29.97R VSB<1/4
MONTICELLO +   MOCLDY    63  62  95 E3        29.97R FOG
6HR MIN TEMP:  61; 6HR MAX TEMP:  64;

RENSSELAER +   PTCLDY    55  54  94 CALM      29.96R FOG
VALPARAISO     FOG       59  59 100 E5        29.97R VSB 1/4
6HR MIN TEMP:  58; 6HR MAX TEMP:  63;


$$

LMZ046-743>745-201300-
SOUTHERN LAKE MICHIGAN

STATION/POSITION TIME  TEMP    WIND        PRES    WAVE
                       AIR SEA DIR/SP/G            HT
                 (UTC) (F)     (DEG/KT/KT) (MB)    (FT)
BURNS HARBOR     1140   67     160/  7/  9 1014.6R
MICHIGAN CITY    1140   64     130/  8/  9   N/A
5NW MICH CITY    1200   66 68  150/  6/  6   N/A     0

$$

INZ004-005-014>016-021>024-201300-
NORTH CENTRAL INDIANA

CITY           SKY/WX    TMP DP  RH WIND       PRES   REMARKS
ELKHART        FOG       64  64 100 E3        29.99R VSB<1/4
GOSHEN         FOG       63  61  93 SE3       29.99R VSB<1/4
6HR MIN TEMP:  63; 6HR MAX TEMP:  67;

LOGANSPORT +   FOG       59  57  94 SE5       29.99R VSB<1/4
PERU/GRISSOM   CLEAR     64  64 100 S3        29.98R FOG
6HR MIN TEMP:  63; 6HR MAX TEMP:  66;

SOUTH BEND     FOG       62  62 100 E6        29.98S VSB<1/4
6HR MIN TEMP:  59; 6HR MAX TEMP:  64;

WARSAW +       LGT RAIN  61  61 100 CALM      30.00R VSB<1/4

$$

INZ006>009-017-018-025>027-201300-
NORTHEAST INDIANA

CITY           SKY/WX    TMP DP  RH WIND       PRES   REMARKS
AUBURN +       FOG       63  63 100 CALM      30.02R VSB<1/4
FORT WAYNE     FOG       62  61  96 CALM      30.01R VSB 1/4
6HR MIN TEMP:  61; 6HR MAX TEMP:  64;

HUNTINGTON +   PTCLDY    63  62  96 CALM      30.00R FOG
6HR MIN TEMP:  62; 6HR MAX TEMP:  66;

KENDALLVILLE + FOG       64  64 100 CALM      30.01R VSB<1/4

$$

INZ028-029-035-036-043>045-051>053-201300-
WEST CENTRAL INDIANA

CITY           SKY/WX    TMP DP  RH WIND       PRES   REMARKS
CRAWFORDSVL +    N/A     63  63 100 CALM      29.98  FOG
GREENCASTLE +  FOG       63  63 100 CALM      30.00R VSB<1/4
LAFAYETTE      CLEAR     64  64 100 CALM      29.96R FOG
6HR MIN TEMP:  62; 6HR MAX TEMP:  65;

TERRE HAUTE    CLEAR     65  64  97 SE3       29.97R FOG
6HR MIN TEMP:  63; 6HR MAX TEMP:  66;


$$

INZ030>032-037>040-046>048-054>057-064-065-201300-
CENTRAL INDIANA

CITY           SKY/WX    TMP DP  RH WIND       PRES   REMARKS
CP ATTERBURY + FOG       64  63  94 SE3       30.01R VSB<1/4
COLUMBUS       FOG       64  64 100 SE3       30.02R VSB 1/4
FRANKFORT +    FOG       65  64  97 CALM      30.01R VSB 3/4
6HR MIN TEMP:  63; 6HR MAX TEMP:  66;

GREENWOOD *+   CLOUDY    68  68  99 SE3       30.01R VSB<1/4
INDIANAPOLIS   PTCLDY    66  65  96 SE6       29.99R FOG
6HR MIN TEMP:  65; 6HR MAX TEMP:  68;

-EAGLE CREEK   CLEAR     66  65  96 SE3       29.99R FOG
6HR MIN TEMP:  65; 6HR MAX TEMP:  68;

KOKOMO +       FOG       62  62 100 SE5       30.00S VSB 1/4
6HR MIN TEMP:  62; 6HR MAX TEMP:  66;

MT COMFORT *+    N/A    N/A N/A N/A MISG        N/A
SHELBYVILLE    FOG       68  65  90 SE3       30.00R VSB 1/2
6HR MIN TEMP:  63; 6HR MAX TEMP:  68;

ZIONSVILLE +   FOG       64  64 100 SE3       30.00R VSB 1
6HR MIN TEMP:  61; 6HR MAX TEMP:  64;


$$

INZ033-034-041-042-049-050-058-059-201300-
EAST CENTRAL INDIANA

CITY           SKY/WX    TMP DP  RH WIND       PRES   REMARKS
MUNCIE         PTCLDY    69  65  86 S5        30.01R FOG
6HR MIN TEMP:  68; 6HR MAX TEMP:  69;

RICHMOND +     FOG       61  61 100 CALM      30.05R VSB 1/2

$$

INZ060-061-067>069-081>083-085>088-201300-
SOUTHWEST INDIANA

CITY           SKY/WX    TMP DP  RH WIND       PRES   REMARKS
EVANSVILLE     CLEAR     67  66  97 CALM      29.98R FOG
6HR MIN TEMP:  67; 6HR MAX TEMP:  70;

HUNTINGBURG +    N/A    N/A N/A N/A MISG        N/A
WASHINGTON +   CLEAR     66  64  94 E3        29.97R FOG
6HR MIN TEMP:  66; 6HR MAX TEMP:  69;


$$

INZ062-063-066-070>080-084-089>092-201300-
SOUTH CENTRAL AND SOUTHEAST INDIANA

CITY           SKY/WX    TMP DP  RH WIND       PRES   REMARKS
BEDFORD +      FOG       66  64  94 CALM      30.00  VSB<1/4
BLOOMINGTON    FOG       66  64  93 SE3       30.00R VSB 1/4
6HR MIN TEMP:  63; 6HR MAX TEMP:  68;

MADISON *+     CLOUDY    64  64 100 CALM      30.05R VSB<1/4
NORTH VERNON + FOG       63  63 100 CALM      30.03R VSB 1/4
SEYMOUR +      FOG       66  66 100 CALM      30.01R VSB 1/4

$$





USA.gov is the U.S. government's official web portal to all federal, state and local government web resources and services.